This is the latest recevied weather packets stored in our database for station/object WD4ITN. If no packets are shown the sender has not sent any weather packets the latest 10 day(s).
| Time | Temp. | Humidity | Pressure | Rain* | Wind** | Luminosity | Snow |
|---|---|---|---|---|---|---|---|
| 1777743813 | 10° C | 54% | 1011.1 hPa | 0 mm | - | - | - |
| 1777743504 | 10° C | 53% | 1011 hPa | 0 mm | - | - | - |
| 1777743205 | 9.44° C | 55% | 1011.1 hPa | 0 mm | - | - | - |
| 1777742906 | 8.89° C | 54% | 1011.1 hPa | 0 mm | - | - | - |
| 1777742594 | 8.33° C | 53% | 1011.2 hPa | 0 mm | - | - | - |
| 1777742298 | 8.33° C | 51% | 1011.3 hPa | 0 mm | - | - | - |
| 1777742015 | 8.33° C | 52% | 1011.4 hPa | 0 mm | - | - | - |
| 1777741693 | 8.33° C | 52% | 1011.2 hPa | 0 mm | - | - | - |
| 1777741397 | 8.33° C | 51% | 1011.4 hPa | 0 mm | - | - | - |
| 1777741116 | 8.89° C | 49% | 1011.3 hPa | 0 mm | - | - | - |
| 1777740811 | 8.89° C | 52% | 1011.4 hPa | 0 mm | - | - | - |
| 1777740490 | 8.89° C | 55% | 1011.5 hPa | 0 mm | - | - | - |
| 1777740201 | 8.33° C | 52% | 1011.4 hPa | 0 mm | - | - | - |
| 1777739602 | 8.33° C | 54% | 1011.4 hPa | 0 mm | - | - | - |
| 1777739319 | 8.33° C | 52% | 1011.4 hPa | 0 mm | - | - | - |
| 1777739009 | 8.89° C | 52% | 1011.4 hPa | 0 mm | - | - | - |
| 1777738707 | 8.89° C | 53% | 1011.4 hPa | 0 mm | - | - | - |
| 1777738398 | 8.89° C | 54% | 1011.6 hPa | 0 mm | - | - | - |
| 1777738101 | 8.89° C | 51% | 1011.4 hPa | 0 mm | - | - | - |
| 1777737799 | 8.89° C | 50% | 1011.5 hPa | 0 mm | - | - | - |
| 1777737522 | 8.89° C | 54% | 1011.7 hPa | 0 mm | - | - | - |
| 1777737210 | 8.33° C | 52% | 1011.5 hPa | 0 mm | - | - | - |
| 1777736909 | 8.33° C | 50% | 1011.5 hPa | 0 mm | - | - | - |
| 1777736598 | 8.33° C | 53% | 1011.5 hPa | 0 mm | - | - | - |
| 1777736299 | 8.33° C | 52% | 1011.6 hPa | 0 mm | - | - | - |
* Rain since midnight (hover to see other rain measurements)
** Current wind speed in m/s (hover to see current wind gust speed)